This is the latest recevied weather packets stored in our database for station/object GAPWX. If no packets are shown the sender has not sent any weather packets the latest 10 day(s).
| Time | Temp. | Humidity | Pressure | Rain* | Wind** | Luminosity | Snow |
|---|---|---|---|---|---|---|---|
| 1778140559 | 7.78° C | 68% | 1021 hPa | 0.25 mm | - | - | - |
| 1778139656 | 7.78° C | 68% | 1021 hPa | 0.25 mm | - | - | - |
| 1778138752 | 8.33° C | 68% | 1021.2 hPa | 0.25 mm | - | - | - |
| 1778138469 | 8.33° C | 68% | 1021.1 hPa | 0.25 mm | - | - | - |
| 1778138149 | 8.33° C | 67% | 1021 hPa | 0.25 mm | - | - | - |
| 1778137852 | 8.33° C | 67% | 1021.1 hPa | 0.25 mm | - | - | - |
| 1778137550 | 8.89° C | 67% | 1021.1 hPa | 0.25 mm | - | - | - |
| 1778136947 | 8.89° C | 67% | 1021.1 hPa | 0.25 mm | - | - | - |
| 1778136642 | 8.89° C | 67% | 1021.1 hPa | 0.25 mm | - | - | - |
| 1778135740 | 8.89° C | 67% | 1021.1 hPa | 0.25 mm | - | - | - |
| 1778133329 | 9.44° C | 65% | 1021 hPa | 0.25 mm | - | - | - |
| 1778132726 | 10° C | 65% | 1021 hPa | 0.25 mm | - | - | - |
| 1778132423 | 10° C | 64% | 1021 hPa | 0.25 mm | - | - | - |
| 1778131218 | 10.56° C | 64% | 1021 hPa | 0.25 mm | - | - | - |
| 1778130919 | 10.56° C | 63% | 1021 hPa | 0.25 mm | - | - | - |
| 1778130620 | 10.56° C | 63% | 1020.9 hPa | 0.25 mm | - | - | - |
| 1778130315 | 10.56° C | 63% | 1021 hPa | 0.25 mm | - | - | - |
| 1778130012 | 10.56° C | 63% | 1020.9 hPa | 0.25 mm | - | - | - |
| 1778128507 | 11.67° C | 62% | 1020.8 hPa | 0.25 mm | - | - | - |
| 1778128204 | 11.67° C | 61% | 1020.8 hPa | 0.25 mm | - | - | - |
| 1778127903 | 11.67° C | 61% | 1020.7 hPa | 0.25 mm | - | - | - |
| 1778127304 | 12.22° C | 61% | 1020.8 hPa | 0.25 mm | - | - | - |
| 1778126095 | 12.78° C | 60% | 1020.6 hPa | 0.25 mm | - | - | - |
| 1778125798 | 12.78° C | 59% | 1020.6 hPa | 0.25 mm | - | - | - |
| 1778125494 | 12.78° C | 59% | 1020.4 hPa | 0.25 mm | - | - | - |
* Rain since midnight (hover to see other rain measurements)
** Current wind speed in m/s (hover to see current wind gust speed)